Location: Fontevrault
(47.1823°N, 0.0493°E)
Time: 14:49:41
(UTC+00:00)

Geosat - Pass Details

Date: 16 June 2021
Orbit: 762 x 766 km, 108.0° (Epoch: 05 August)

Event Time Altitude Azimuth Distance (km) Brightness Sun altitude
Exits shadow 21:15:07 13° 151° (SSE) 2,090 5.6 -10.2°
Maximum altitude 21:19:37 88° 238° (WSW) 771 4.0 -10.7°
Drops below altitude 10° 21:24:40 10° 331° (NNW) 2,310 8.0 -11.2°
Sets 21:26:58 0° 332° (NNW) 3,240 9.3 -11.4°
